Tapachula Airport, Mexico

8:45 AM CDT on June 23, 2017 (GMT -0500)
Tapachula International

Weather History for MMTP - January, 2013

Change the Weather History Date:

Monday, January 7, 2013

  Actual Average Record
Temperature  
Mean Temperature 81 °F -  
Max Temperature 89 °F 86 °F 91 °F (2007)
Min Temperature 73 °F 70 °F 69 °F (1998)
Cooling Degree Days 16    
Growing Degree Days 31 (Base 50)    
Moisture  
Dew Point 71 °F    
Average Humidity 72    
Maximum Humidity 94    
Minimum Humidity 52    
Precipitation  
Precipitation 0.00 in - - ()
Sea Level Pressure  
Sea Level Pressure 29.85 in    
Wind  
Wind Speed 1 mph ()    
Max Wind Speed 12 mph    
Max Gust Speed -    
Visibility 9.8 miles    
Events      
Averages and records for this station are not official NWS values.
T = Trace of Precipitation, MM = Missing Value Source: Averaged Metar Reports

Daily Weather History Graph

Daily Weather History Graph

Search for Another Location

Airport or City:

Trip Planner

Search our weather history database for the weather conditions in past years. The results will help you decide how hot, cold, wet, or windy it might be!

Date:

Astronomy

Jan. 07, 2013 Rise Set
Actual Time 6:36 AM CST 5:54 PM CST
Civil Twilight 6:13 AM CST 6:17 PM CST
Nautical Twilight 5:47 AM CST 6:44 PM CST
Astronomical Twilight 5:20 AM CST 7:10 PM CST
Moon 2:11 AM CST (1/7) 1:58 PM CST (1/7)
Length of Visible Light 12h 03m
Length of Day
11h 17m
Waning Crescent, 22% of the Moon is Illuminated
Jan 7
Waning Crescent
Jan 11
New
Jan 18
First Quarter
Jan 26
Full
Feb 3
Last Quarter

Hourly Weather History & Observations

Time (CST) Temp. Heat Index Dew Point Humidity Pressure Visibility Wind Dir Wind Speed Gust Speed Precip Events Conditions
12:40 AM 75.2 °F - 73.4 °F 94% 29.89 in 10.0 mi Calm Calm - N/A   Partly Cloudy
1:40 AM 75.2 °F - 73.4 °F 94% 29.89 in 10.0 mi Calm Calm - N/A   Clear
2:40 AM 75.2 °F - 73.4 °F 94% 29.84 in 10.0 mi Calm Calm - N/A   Partly Cloudy
3:40 AM 75.2 °F - 73.4 °F 94% 29.89 in 10.0 mi Calm Calm - N/A   Partly Cloudy
4:40 AM 75.2 °F - 69.8 °F 83% 29.85 in 10.0 mi Calm Calm - N/A   Partly Cloudy
5:40 AM 75.2 °F - 69.8 °F 83% 29.78 in 10.0 mi Calm Calm - N/A   Partly Cloudy
6:40 AM 73.4 °F - 68.0 °F 83% 29.87 in 10.0 mi Calm Calm - N/A   Partly Cloudy
7:40 AM 73.4 °F - 68.0 °F 83% 29.89 in 10.0 mi Calm Calm - N/A   Partly Cloudy
8:40 AM 80.6 °F 83.9 °F 69.8 °F 70% 29.87 in 10.0 mi Calm Calm - N/A   Partly Cloudy
9:40 AM 87.8 °F 92.6 °F 69.8 °F 55% 29.89 in 10.0 mi Calm Calm - N/A   Partly Cloudy
10:40 AM 87.8 °F 92.6 °F 69.8 °F 55% 29.88 in 10.0 mi Calm Calm - N/A   Scattered Clouds
11:42 AM 87.8 °F 92.6 °F 69.8 °F 55% 29.90 in 10.0 mi Calm Calm - N/A   Partly Cloudy
12:40 PM 89.6 °F 94.7 °F 69.8 °F 52% 29.83 in 10.0 mi Calm Calm - N/A   Partly Cloudy
1:40 PM 89.6 °F 94.7 °F 69.8 °F 52% 29.80 in 10.0 mi SSW 11.5 mph - N/A   Partly Cloudy
2:40 PM 89.6 °F 94.7 °F 69.8 °F 52% 29.86 in 10.0 mi SSW 11.5 mph - N/A   Partly Cloudy
3:40 PM 89.6 °F 94.7 °F 69.8 °F 52% 29.78 in 10.0 mi SSW 11.5 mph - N/A   Partly Cloudy
4:40 PM 86.0 °F 90.4 °F 69.8 °F 58% 29.78 in 10.0 mi SW 11.5 mph - N/A   Clear
5:40 PM 86.0 °F 90.4 °F 69.8 °F 58% 29.88 in 10.0 mi SW 11.5 mph - N/A   Clear
6:40 PM 82.4 °F 86.3 °F 69.8 °F 66% 29.82 in 10.0 mi Calm Calm - N/A   Clear
7:40 PM 82.4 °F 86.3 °F 69.8 °F 66% 29.84 in 10.0 mi Calm Calm - N/A   Clear
8:40 PM 80.6 °F 86.2 °F 75.2 °F 84% 29.87 in 10.0 mi Calm Calm - N/A   Clear
9:40 PM 78.8 °F - 73.4 °F 83% 29.86 in 10.0 mi Calm Calm - N/A   Clear
10:40 PM 78.8 °F - 73.4 °F 83% 29.87 in 8.0 mi Calm Calm - N/A   Clear
11:42 PM 78.8 °F - 71.6 °F 78% 29.82 in 8.0 mi Calm Calm - N/A   Clear